This demonstration page uses our WeatherBlox Daily Observations layout. Learn more.

Left ArrowRight Arrow

36.17497, -115.13722

Hourly Observations for September 11, 2020

Temp ( °F °C ) Dew Point ( °F °C ) Humidity (%) Winds ( mph kmh ) Pressure ( in mb ) Visibility ( mi km ) Precip ( " mm )
12:53 am 00:53 Clear 72 22.2 32 undefined 23 23 SW 3 6 30.04 1017 10 16 N/A
1:53 am 01:53 Clear 69 20.6 32 undefined 25 25 W 3 6 30.05 1018 10 16 N/A
2:53 am 02:53 Clear 68 20 30 -1.1 24 24 N N/A 30.05 1018 10 16 N/A
3:53 am 03:53 Clear 69 20.6 30 -1.1 23 23 N N/A 30.06 1018 10 16 N/A
4:53 am 04:53 Clear 67 19.4 30 -1.1 25 25 WNW 5 7 30.07 1018 10 16 N/A
5:53 am 05:53 Clear 64 17.8 33 0.6 32 32 NNW 6 9 30.08 1019 10 16 N/A
6:53 am 06:53 Sunny 65 18.3 30 -1.1 27 27 NW 6 9 30.09 1019 10 16 N/A
7:53 am 07:53 Sunny 68 20 29 -1.7 23 23 NW 3 6 30.10 1019 10 16 N/A
8:53 am 08:53 Sunny 73 22.8 29 -1.7 19 19 NW 3 6 30.11 1020 10 16 N/A
9:53 am 09:53 Sunny 78 25.6 26 -3.3 15 15 N N/A 30.12 1020 10 16 N/A
10:53 am 10:53 Sunny 81 27.2 26 -3.3 13 13 N N/A 30.11 1020 10 16 N/A
11:53 am 11:53 Sunny 83 28.3 25 -3.9 12 12 N N/A 30.08 1019 10 16 N/A
12:53 pm 12:53 Sunny 85 29.4 26 -3.3 12 12 N N/A 30.05 1018 10 16 N/A
1:53 pm 13:53 Sunny 87 30.6 27 -2.8 11 11 ESE 6 9 30.02 1017 10 16 N/A
2:53 pm 14:53 Sunny 88 31.1 27 -2.8 11 11 N N/A 29.99 1016 10 16 N/A
3:53 pm 15:53 Sunny 89 31.7 25 -3.9 10 10 SW 3 6 29.96 1015 10 16 N/A
4:53 pm 16:53 Sunny 90 32.2 25 -3.9 9 9 N N/A 29.95 1014 10 16 N/A
5:53 pm 17:53 Sunny 89 31.7 26 -3.3 10 10 SSW 3 6 29.95 1014 10 16 N/A
6:53 pm 18:53 Sunny 88 31.1 25 -3.9 10 10 S 3 6 29.95 1014 10 16 N/A
7:53 pm 19:53 Clear 85 29.4 27 -2.8 12 12 WSW 3 6 29.95 1014 10 16 N/A
8:53 pm 20:53 Clear 80 26.7 30 -1.1 16 16 WNW 6 9 29.96 1015 10 16 N/A
9:53 pm 21:53 Clear 79 26.1 30 -1.1 17 17 WNW 7 11 29.96 1014 10 16 N/A
10:53 pm 22:53 Clear 74 23.3 32 undefined 21 21 NNW 7 11 29.95 1014 10 16 N/A
11:53 pm 23:53 Clear 73 22.8 28 -2.2 19 19 NW 7 11 29.95 1014 10 16 N/A

Powered by AerisWeather